EW0915 Weather Reports


time (UTC)temp
C
wind
direction
speed
KPH
gust
KPH
rain 1hr
cm
rain 24hr
cm
rain mn
cm
humidity
%
barometer
mb
20260508011018 10 0.0 3.2 0.00 0.00 0.00 77 1017.4
20260508010016 10 0.0 6.4 0.00 0.00 0.00 76 1017.4
20260508005016 10 0.0 3.2 0.00 0.00 0.00 76 1017.5
20260508004018 10 90 1.6 8.0 0.00 0.00 0.00 76 1017.6
20260508003016 10 0.0 3.2 0.00 0.00 0.00 76 1017.7
20260508002016 10 90 1.6 9.7 0.00 0.00 0.00 76 1017.6
20260508001016 10 90 1.6 6.4 0.00 0.00 0.00 76 1017.6
20260508000016 10 90 1.6 9.7 0.00 0.00 0.00 75 1017.6
20260507235017 10 90 1.6 6.4 0.00 0.00 0.00 75 1017.6
20260507234017 10 90 1.6 12.9 0.00 0.00 0.00 75 1017.5
20260507233016 10 90 3.2 12.9 0.00 0.00 0.00 74 1017.4
20260507232039 10 90 4.8 14.5 0.00 0.00 0.00 74 1017.2
20260507231016 10 90 4.8 19.3 0.00 0.00 0.00 75 1017.1
20260507230038 10 90 3.2 12.9 0.00 0.00 0.00 75 1017.2
20260507225016 10 90 4.8 16.1 0.00 0.00 0.00 76 1017.2
20260507224017 10 90 3.2 17.7 0.00 0.00 0.00 76 1017.3
20260507223016 10 90 4.8 17.7 0.00 0.00 0.00 76 1017.3
20260507222016 10 90 3.2 14.5 0.00 0.00 0.00 76 1017.3
20260507221036 10 90 4.8 17.7 0.00 0.00 0.00 76 1017.2
20260507220017 10 90 4.8 14.5 0.00 0.00 0.00 76 1017.1
20260507215017 10 90 3.2 11.3 0.00 0.00 0.00 76 1017.1
20260507214016 10 90 3.2 12.9 0.00 0.00 0.00 76 1017.1
20260507213016 10 90 3.2 14.5 0.00 0.00 0.00 75 1017.1
20260507212016 10 90 3.2 11.3 0.00 0.00 0.00 75 1017.1
20260507211017 10 90 1.6 12.9 0.00 0.00 0.00 75 1017.1
20260507210016 11 90 3.2 9.7 0.00 0.00 0.00 74 1017.1
20260507205056 11 90 3.2 11.3 0.00 0.00 0.00 74 1017.1
20260507204016 11 90 3.2 12.9 0.00 0.00 0.00 73 1017.0
20260507203016 11 90 3.2 12.9 0.00 0.00 0.00 73 1017.0
20260507202016 11 90 4.8 14.5 0.00 0.00 0.00 73 1016.9
20260507201036 11 90 4.8 19.3 0.00 0.00 0.00 73 1016.5
20260507200036 11 90 3.2 14.5 0.00 0.00 0.00 73 1016.5
20260507195016 12 90 4.8 16.1 0.00 0.00 0.00 72 1016.5
20260507194015 12 90 3.2 12.9 0.00 0.00 0.00 72 1016.4
20260507193036 12 90 3.2 11.3 0.00 0.00 0.00 71 1016.4
20260507192036 12 90 1.6 12.9 0.00 0.00 0.00 71 1016.5
20260507191016 12 90 1.6 9.7 0.00 0.00 0.00 71 1016.5
20260507190037 12 90 3.2 14.5 0.00 0.00 0.00 71 1016.6
20260507185017 12 90 3.2 11.3 0.00 0.00 0.00 70 1016.8
20260507184015 12 90 3.2 12.9 0.00 0.00 0.00 70 1016.7
20260507183016 12 90 4.8 14.5 0.00 0.00 0.00 69 1016.7
20260507182017 12 90 3.2 12.9 0.00 0.00 0.00 69 1016.6
20260507181035 12 90 4.8 14.5 0.00 0.00 0.00 68 1016.4
20260507180037 12 90 3.2 12.9 0.00 0.00 0.00 68 1016.5
20260507175016 13 90 4.8 17.7 0.00 0.00 0.00 67 1016.5
20260507174016 13 90 4.8 14.5 0.00 0.00 0.00 66 1016.7
20260507173016 13 90 4.8 12.9 0.00 0.00 0.00 64 1016.6
20260507172037 13 90 4.8 12.9 0.00 0.00 0.00 62 1016.5
20260507171017 13 90 6.4 19.3 0.00 0.00 0.00 61 1016.7
20260507170035 13 90 6.4 17.7 0.00 0.00 0.00 60 1016.6
20260507165015 13 90 4.8 16.1 0.00 0.00 0.00 59 1016.7
20260507164015 13 90 6.4 17.7 0.00 0.00 0.00 58 1016.7
20260507163017 14 113 4.8 19.3 0.00 0.00 0.00 55 1016.6
20260507162017 14 90 4.8 16.1 0.00 0.00 0.00 58 1016.7
20260507161017 14 90 4.8 16.1 0.00 0.00 0.00 58 1016.8
20260507160015 14 90 6.4 17.7 0.00 0.00 0.00 62 1016.8
20260507155015 14 90 6.4 22.5 0.00 0.00 0.00 61 1016.8
20260507154019 14 113 9.7 27.4 0.00 0.00 0.00 56 1016.7
20260507153017 13 113 4.8 27.4 0.00 0.00 0.00 58 1016.7
20260507152019 12 113 3.2 11.3 0.00 0.00 0.00 66 1016.7
20260507151017 11 0.0 6.4 0.00 0.00 0.00 75 1016.9
20260507150017 11 90 1.6 8.0 0.00 0.00 0.00 76 1017.0
20260507145015 11 90 3.2 11.3 0.00 0.00 0.00 76 1017.1
20260507144019 11 90 3.2 8.0 0.00 0.00 0.00 76 1017.1
20260507143017 11 90 3.2 11.3 0.00 0.00 0.00 76 1017.1
20260507142018 11 90 4.8 17.7 0.00 0.00 0.00 76 1017.2
20260507141037 12 90 3.2 12.9 0.00 0.00 0.00 75 1017.3
20260507140017 13 113 4.8 19.3 0.00 0.00 0.00 68 1017.3
20260507135018 13 90 3.2 14.5 0.00 0.00 0.00 69 1017.2
20260507134018 13 90 3.2 16.1 0.00 0.00 0.00 69 1017.2
20260507133017 13 90 3.2 14.5 0.00 0.00 0.00 69 1017.3
20260507132037 13 90 6.4 17.7 0.00 0.00 0.00 69 1017.4
20260507131018 13 90 4.8 14.5 0.00 0.00 0.00 69 1017.5
20260507130017 13 90 6.4 22.5 0.00 0.00 0.00 69 1017.5
20260507125057 12 90 6.4 16.1 0.00 0.00 0.00 70 1017.3
20260507124039 12 90 6.4 17.7 0.00 0.00 0.00 71 1017.5
20260507123019 12 90 8.0 24.1 0.00 0.00 0.00 71 1017.5
20260507122017 12 90 6.4 19.3 0.00 0.00 0.00 71 1017.5
20260507121017 12 90 8.0 25.7 0.00 0.00 0.00 71 1017.4
20260507120017 12 90 8.0 24.1 0.00 0.00 0.00 71 1017.3
20260507115037 12 90 6.4 20.9 0.00 0.00 0.00 71 1017.4
20260507114119 12 113 8.0 25.7 0.00 0.00 0.00 71 1017.5
20260507113037 12 90 8.0 24.1 0.00 0.00 0.00 72 1017.5
20260507112017 12 90 6.4 20.9 0.00 0.00 0.00 72 1017.6
20260507111018 11 90 6.4 25.7 0.00 0.00 0.00 74 1017.5
20260507110018 11 90 6.4 20.9 0.00 0.00 0.00 74 1017.7
20260507105017 11 90 4.8 16.1 0.00 0.00 0.00 74 1017.6
20260507104018 11 90 6.4 17.7 0.00 0.00 0.00 74 1017.6
20260507103017 11 90 6.4 20.9 0.00 0.00 0.00 74 1017.5
20260507102018 11 90 6.4 19.3 0.00 0.00 0.00 74 1017.5
20260507101017 10 90 4.8 19.3 0.00 0.00 0.00 75 1017.6
20260507100038 10 90 4.8 24.1 0.00 0.00 0.00 75 1017.6
20260507095022 10 90 6.4 19.3 0.00 0.00 0.00 75 1017.5
20260507094058 10 113 4.8 17.7 0.00 0.00 0.00 74 1017.6
20260507093017 10 90 6.4 17.7 0.00 0.00 0.00 75 1017.7
20260507092017 10 90 6.4 17.7 0.00 0.00 0.00 75 1017.7
20260507091018 10 90 4.8 16.1 0.00 0.00 0.00 75 1017.7
20260507090018 10 90 8.0 25.7 0.00 0.00 0.00 74 1017.5
20260507085018 10 90 8.0 25.7 0.00 0.00 0.00 74 1017.5
20260507084016 10 90 6.4 17.7 0.00 0.00 0.00 74 1017.3
20260507083017 10 90 6.4 16.1 0.00 0.00 0.00 74 1017.4
20260507082016 10 90 4.8 17.7 0.00 0.00 0.00 74 1017.5
20260507081017 10 90 4.8 17.7 0.00 0.00 0.00 74 1017.4
20260507080037 10 90 4.8 19.3 0.00 0.00 0.00 75 1017.5
20260507075017 10 90 6.4 19.3 0.00 0.00 0.00 75 1017.4
20260507074017 9 90 4.8 19.3 0.00 0.00 0.00 75 1017.6
20260507073036 9 90 3.2 12.9 0.00 0.00 0.00 75 1017.5
20260507072016 9 113 4.8 17.7 0.00 0.00 0.00 75 1017.4
20260507071017 9 113 1.6 17.7 0.00 0.00 0.00 76 1017.4
20260507070018 8 90 1.6 12.9 0.00 0.00 0.00 77 1017.5
20260507065016 8 0.0 3.2 0.00 0.00 0.00 78 1017.4
20260507064018 7 0.0 3.2 0.00 0.00 0.00 78 1017.4
20260507063017 7 0.0 6.4 0.00 0.00 0.00 78 1017.3
20260507062036 7 0.0 6.4 0.00 0.00 0.00 79 1017.4
20260507061018 6 23 1.6 6.4 0.00 0.00 0.00 79 1017.4
20260507060016 6 0.0 3.2 0.00 0.00 0.00 78 1017.5
20260507055016 6 0.0 6.4 0.00 0.00 0.00 78 1017.5
20260507054120 6 0 1.6 6.4 0.00 0.00 0.00 78 1017.5
20260507053018 6 0.0 6.4 0.00 0.00 0.00 79 1017.5
20260507052018 5 0.0 4.8 0.00 0.00 0.00 78 1017.6
20260507051100 5 0.0 3.2 0.00 0.00 0.00 78 1017.8
20260507050018 5 0.0 3.2 0.00 0.00 0.00 78 1017.8
20260507045019 5 0.0 1.6 0.00 0.00 0.00 77 1017.7
20260507044038 6 0.0 3.2 0.00 0.00 0.00 77 1017.8
20260507043018 6 0.0 1.6 0.00 0.00 0.00 77 1017.7
20260507042016 6 0.0 1.6 0.00 0.00 0.00 76 1017.6
20260507041016 6 0.0 1.6 0.00 0.00 0.00 76 1017.8
20260507040016 6 0.0 1.6 0.00 0.00 0.00 76 1017.9
20260507035018 6 0.0 0.0 0.00 0.00 0.00 76 1018.0
20260507034016 6 0.0 0.0 0.00 0.00 0.00 75 1018.0
20260507033019 7 0.0 1.6 0.00 0.00 0.00 75 1018.0
20260507032038 7 0.0 1.6 0.00 0.00 0.00 74 1018.0
20260507031016 7 0.0 1.6 0.00 0.00 0.00 74 1018.1
20260507030018 7 0.0 1.6 0.00 0.00 0.00 74 1018.1
20260507025016 7 0.0 1.6 0.00 0.00 0.00 74 1018.2
20260507024016 7 0.0 1.6 0.00 0.00 0.00 73 1018.2
20260507023017 7 0.0 1.6 0.00 0.00 0.00 73 1018.2
20260507022017 7 0.0 1.6 0.00 0.00 0.00 73 1018.2
20260507021016 7 0.0 1.6 0.00 0.00 0.00 74 1018.2
20260507020038 7 0.0 3.2 0.00 0.00 0.00 73 1018.2
20260507015016 7 0.0 1.6 0.00 0.00 0.00 73 1018.0
20260507014016 7 0.0 1.6 0.00 0.00 0.00 72 1018.1
20260507013017 7 0.0 1.6 0.00 0.00 0.00 72 1018.2
20260507012017 7 0 1.6 6.4 0.00 0.00 0.00 71 1018.1